SL-14 DEB, 45316

Orbit data source: Space-Track

SL-14 DEB, 45316 is space debris in LEO originally from a launch on Thu, 15 Aug 1991 UTC launched from the Plesetsk Missile And Space Complex (PKMTR). Debris objects in space refer to the collection of defunct objects orbiting the Earth. Examples of debris include non-operational satellites, rocket bodies, and fragments generated from explosions, collisions, or faulty payload assembly.

Loading next visibility...
Identifier
45316, 1991-056BE
Orbit
LEO
Country
Flag of CISCIS
Related business
Manufacturer
Unknown
Mission
Spacecraft
Bus & Motor
Unknown
Mass
Unknown
Launch date (UTC)
1991-08-15 (35 years ago)
Launch vehicle
Unknown
Launch site
Plesetsk Missile And Space Complex (PKMTR)
Object type
Payload
Rocket body
Debris
Shape & HBR
Unknown shape, 0.2 m
Radar Cross Section
Medium (>0.1 m² and <1 m²)

Expand to show TLE details & history
Last TLE update: 2 days ago

TLE from 2 days ago
0 SL-14 DEB
1 45316U 91056BE  26171.30846656  .00000940  00000-0  18258-2 0  9994
2 45316  82.5919 109.7882 0113040 333.1963  26.3354 13.33246004307466
Epoch: 2026-06-20T07:24Z
TLE epoch observation values (Epoch: 2026-06-20T07:24:11.510Z)
Latitude
-0.00002°
Longitude
90.21529°
Altitude
1,061.445 km
Speed
7.358 km/s
True Right ascension
07h 19m 09s
True Declination
0° 00' 00"
Sunlit
Object was in daylight at epoch
Visualization orbit readout
Latitude
Unknown
Longitude
Unknown
Altitude
Unknown
Speed
Unknown
Apparent Right ascension
Unknown
Apparent Declination
Unknown
Sunlit
N/A
Visualization observer readout
Local Sidereal Time
21:42:49
Azimuth
Unknown
Elevation
Unknown
Doppler factor
Unknown
Orbital elements
Apogee altitude
1,216.656 km
Perigee altitude
1,046.873 km
Semi-major axis
7,509.901 km
Eccentricity
0.0113
Inclination
82.5919°
RAAN
109.7882°
Arg. of periapsis
333.1963°
True anomaly
26.9174°
Mean anomaly
26.3354°
Eccentric anomaly
26.62566°
Mean motion
3.33497 °/min
Orbital period
107.95 mins
BSTAR
0.0018258
Loading maneuver chart data...
Computing Atmospheric mass density...
Loading historical data...
Loading historical data...
Loading historical data...
Loading historical data...
Loading historical data...
Loading historical data...
Loading historical data...

Documentation

Showing up to 5 results
|